KC5TXI Weather Reports


Display with metric or nautical units.
time (UTC)temp
F
wind
direction
speed
MPH
gust
MPH
rain 1hr
in
rain 24hr
in
rain mn
in
humidity
%
barometer
mb
20260506002925 80 55 3.0 5.0 0.00 0.00 0.00 63 1006.8
20260506002421 80 57 1.0 2.0 0.00 0.00 0.00 62 1006.5
20260506001917 80 264 4.0 6.0 0.00 0.00 0.00 61 1006.7
20260506001414 81 312 3.0 5.0 0.00 0.00 0.00 61 1006.6
20260506000911 81 222 3.0 5.0 0.00 0.00 0.00 61 1006.7
20260506000409 82 193 1.0 2.0 0.00 0.00 0.00 61 1006.7
20260505235905 82 234 1.0 1.0 0.00 0.00 0.00 61 1006.6
20260505235404 83 51 2.0 3.0 0.00 0.00 0.00 60 1006.4
20260505234900 84 125 1.0 1.0 0.00 0.00 0.00 60 1006.1
20260505234358 84 280 5.0 7.0 0.00 0.00 0.00 59 1006.2
20260505233854 85 200 1.0 2.0 0.00 0.00 0.00 57 1006.3
20260505233352 86 160 0.0 1.0 0.00 0.00 0.00 55 1005.9
20260505232849 86 190 0.0 0.0 0.00 0.00 0.00 53 1005.8
20260505232347 86 2 1.0 2.0 0.00 0.00 0.00 52 1005.8
20260505231843 87 258 2.0 2.0 0.00 0.00 0.00 51 1005.7
20260505231341 87 332 2.0 5.0 0.00 0.00 0.00 51 1005.7
20260505230839 88 178 0.0 0.0 0.00 0.00 0.00 52 1005.5
20260505230336 89 175 2.0 2.0 0.00 0.00 0.00 59 1005.5
20260505225832 90 200 0.0 0.0 0.00 0.00 0.00 59 1005.5
20260505225330 90 187 3.0 3.0 0.00 0.00 0.00 58 1005.3
20260505224825 91 214 1.0 1.0 0.00 0.00 0.00 58 1005.1
20260505224323 93 199 0.0 1.0 0.00 0.00 0.00 54 1005.2
20260505223820 93 194 0.0 0.0 0.00 0.00 0.00 48 1005.0
20260505223317 93 202 0.0 0.0 0.00 0.00 0.00 46 1005.1
20260505222812 93 108 0.0 1.0 0.00 0.00 0.00 43 1005.0
20260505222309 94 206 0.0 1.0 0.00 0.00 0.00 44 1005.0
20260505221806 94 173 0.0 0.0 0.00 0.00 0.00 43 1005.0
20260505221303 94 195 0.0 0.0 0.00 0.00 0.00 47 1004.8
20260505220800 95 197 0.0 1.0 0.00 0.00 0.00 46 1004.9
20260505220257 95 181 0.0 0.0 0.00 0.00 0.00 49 1005.0
20260505215755 95 222 0.0 1.0 0.00 0.00 0.00 47 1005.1
20260505215252 94 204 1.0 2.0 0.00 0.00 0.00 49 1004.8
20260505214750 94 211 1.0 1.0 0.00 0.00 0.00 49 1004.9
20260505214247 93 204 1.0 1.0 0.00 0.00 0.00 50 1005.1
20260505213744 93 176 0.0 1.0 0.00 0.00 0.00 50 1005.2
20260505213242 93 207 1.0 2.0 0.00 0.00 0.00 50 1005.1
20260505212737 93 195 0.0 0.0 0.00 0.00 0.00 49 1005.1
20260505212235 93 189 0.0 0.0 0.00 0.00 0.00 50 1005.2
20260505211732 93 201 0.0 0.0 0.00 0.00 0.00 50 1005.4
20260505211229 93 222 1.0 1.0 0.00 0.00 0.00 50 1005.3
20260505210725 93 210 1.0 1.0 0.00 0.00 0.00 50 1005.3
20260505210222 93 211 0.0 1.0 0.00 0.00 0.00 52 1005.5
20260505205720 92 195 1.0 1.0 0.00 0.00 0.00 55 1005.7
20260505205218 93 204 0.0 0.0 0.00 0.00 0.00 54 1005.9
20260505204714 93 201 0.0 1.0 0.00 0.00 0.00 54 1005.8
20260505204212 92 188 3.0 3.0 0.00 0.00 0.00 51 1005.6
20260505203709 92 130 1.0 1.0 0.00 0.00 0.00 53 1005.7
20260505203206 92 195 1.0 1.0 0.00 0.00 0.00 55 1005.9
20260505202701 91 186 2.0 2.0 0.00 0.00 0.00 54 1006.0
20260505202158 92 208 0.0 0.0 0.00 0.00 0.00 56 1006.1
20260505201654 91 216 1.0 1.0 0.00 0.00 0.00 55 1006.2
20260505201153 91 181 1.0 2.0 0.00 0.00 0.00 56 1006.0
20260505200650 90 183 0.0 1.0 0.00 0.00 0.00 55 1006.3
20260505200147 91 220 2.0 2.0 0.00 0.00 0.00 56 1006.2
20260505195643 92 211 2.0 3.0 0.00 0.00 0.00 58 1006.2
20260505195140 91 182 2.0 3.0 0.00 0.00 0.00 58 1006.2
20260505194637 91 170 2.0 3.0 0.00 0.00 0.00 59 1006.3
20260505194133 91 239 0.0 0.0 0.00 0.00 0.00 59 1006.2
20260505193630 91 211 3.0 3.0 0.00 0.00 0.00 58 1006.4
20260505193127 91 241 1.0 2.0 0.00 0.00 0.00 56 1006.4
20260505192626 89 177 1.0 1.0 0.00 0.00 0.00 58 1006.1
20260505192123 90 247 1.0 2.0 0.00 0.00 0.00 59 1006.1
20260505191621 90 202 1.0 1.0 0.00 0.00 0.00 61 1006.3
20260505191119 89 161 2.0 2.0 0.00 0.00 0.00 62 1006.2
20260505190614 89 235 2.0 2.0 0.00 0.00 0.00 62 1006.3
20260505190110 89 174 2.0 3.0 0.00 0.00 0.00 61 1006.5
20260505185607 87 191 0.0 0.0 0.00 0.00 0.00 63 1006.3
20260505185103 89 238 2.0 3.0 0.00 0.00 0.00 62 1006.4
20260505184559 88 220 1.0 1.0 0.00 0.00 0.00 62 1006.4
20260505184056 88 191 2.0 2.0 0.00 0.00 0.00 62 1006.4
20260505183553 87 201 0.0 1.0 0.00 0.00 0.00 63 1006.8
20260505183051 87 42 2.0 3.0 0.00 0.00 0.00 64 1006.5
20260505182541 87 216 2.0 2.0 0.00 0.00 0.00 64 1006.7
20260505182038 86 217 1.0 1.0 0.00 0.00 0.00 66 1006.5
20260505181535 86 146 2.0 2.0 0.00 0.00 0.00 65 1006.7
20260505181032 86 225 1.0 2.0 0.00 0.00 0.00 65 1006.8
20260505180527 86 216 2.0 2.0 0.00 0.00 0.00 65 1006.5
20260505180026 86 202 1.0 1.0 0.00 0.00 0.00 66 1006.7
20260505175521 85 209 1.0 1.0 0.00 0.00 0.00 66 1006.8
20260505175018 86 192 1.0 2.0 0.00 0.00 0.00 67 1006.7
20260505174515 86 99 4.0 6.0 0.00 0.00 0.00 66 1006.9
20260505174011 86 216 1.0 2.0 0.00 0.00 0.00 67 1006.8
20260505173508 85 201 2.0 2.0 0.00 0.00 0.00 67 1006.7
20260505173004 84 196 0.0 1.0 0.00 0.00 0.00 69 1006.9
20260505172502 83 264 1.0 2.0 0.00 0.00 0.00 70 1006.9
20260505171957 83 202 2.0 2.0 0.00 0.00 0.00 70 1006.6
20260505171453 83 177 2.0 2.0 0.00 0.00 0.00 70 1006.8
20260505170950 83 258 1.0 2.0 0.00 0.00 0.00 69 1006.8
20260505170446 85 175 2.0 2.0 0.00 0.00 0.00 68 1007.0
20260505165936 84 193 2.0 3.0 0.00 0.00 0.00 67 1006.8
20260505165433 84 190 2.0 3.0 0.00 0.00 0.00 69 1006.8
20260505164928 83 211 2.0 2.0 0.00 0.00 0.00 70 1007.0
20260505164425 83 136 1.0 2.0 0.00 0.00 0.00 69 1007.2
20260505163923 84 209 1.0 1.0 0.00 0.00 0.00 69 1006.9
20260505163422 84 182 2.0 2.0 0.00 0.00 0.00 70 1007.0
20260505162920 83 216 1.0 2.0 0.00 0.00 0.00 70 1006.8
20260505162416 83 153 3.0 6.0 0.00 0.00 0.00 71 1006.6
20260505161913 82 172 3.0 3.0 0.00 0.00 0.00 71 1006.5
20260505161409 81 184 2.0 2.0 0.00 0.00 0.00 73 1006.5
20260505160907 82 198 4.0 5.0 0.00 0.00 0.00 72 1006.7
20260505160405 81 224 1.0 1.0 0.00 0.00 0.00 73 1006.8
20260505153344 79 201 2.0 3.0 0.00 0.00 0.00 76 1006.6
20260505152840 79 225 0.0 1.0 0.00 0.00 0.00 77 1006.6
20260505152337 79 178 1.0 2.0 0.00 0.00 0.00 77 1006.6
20260505151832 79 151 2.0 2.0 0.00 0.00 0.00 76 1006.6
20260505151328 78 234 2.0 3.0 0.00 0.00 0.00 78 1006.8
20260505150825 78 222 2.0 3.0 0.00 0.00 0.00 78 1006.7
20260505150322 77 218 2.0 3.0 0.00 0.00 0.00 80 1006.8
20260505140235 74 217 0.0 0.0 0.00 0.00 0.00 85 1006.7
20260505130159 71 202 0.0 1.0 0.00 0.00 0.00 89 1006.4
20260505124649 71 197 2.0 3.0 0.00 0.00 0.00 90 1006.2
20260505124146 71 264 3.0 5.0 0.00 0.00 0.00 90 1006.1
20260505123641 71 201 0.0 0.0 0.00 0.00 0.00 90 1005.9
20260505123138 70 178 2.0 2.0 0.00 0.00 0.00 91 1006.0
20260505122629 70 213 3.0 3.0 0.00 0.00 0.00 91 1005.9
20260505122126 70 195 0.0 0.0 0.00 0.00 0.00 91 1006.0
20260505121622 70 187 0.0 0.0 0.00 0.00 0.00 91 1005.8
20260505121119 70 209 2.0 5.0 0.00 0.00 0.00 91 1005.5
20260505120615 70 218 2.0 2.0 0.00 0.00 0.00 91 1005.6
20260505120111 70 182 0.0 1.0 0.00 0.00 0.00 91 1005.6
20260505115606 70 233 6.0 8.0 0.00 0.00 0.00 91 1005.7
20260505115104 70 197 1.0 1.0 0.00 0.00 0.00 91 1005.8
20260505114601 70 181 3.0 5.0 0.00 0.00 0.00 91 1005.8
20260505114057 70 208 2.0 2.0 0.00 0.00 0.00 91 1005.6
20260505113554 70 194 0.0 1.0 0.00 0.00 0.00 91 1005.6
20260505113050 70 191 1.0 1.0 0.00 0.00 0.00 91 1005.6
20260505112546 70 181 0.0 0.0 0.00 0.00 0.00 91 1005.6
20260505112045 70 186 4.0 5.0 0.00 0.00 0.00 91 1005.7
20260505111538 70 181 3.0 5.0 0.00 0.00 0.00 91 1005.7
20260505111034 70 208 0.0 0.0 0.00 0.00 0.00 91 1005.5
20260505110526 70 229 1.0 2.0 0.00 0.00 0.00 91 1005.6
20260505101952 71 183 0.0 0.0 0.00 0.00 0.00 89 1005.3
20260505101450 71 187 1.0 1.0 0.00 0.00 0.00 89 1005.4
20260505100946 71 206 3.0 3.0 0.00 0.00 0.00 89 1005.5
20260505100444 71 229 1.0 2.0 0.00 0.00 0.00 89 1005.6
20260505095939 71 155 3.0 3.0 0.00 0.00 0.00 89 1005.5
20260505095436 71 175 1.0 2.0 0.00 0.00 0.00 89 1005.5
20260505094932 71 138 1.0 1.0 0.00 0.00 0.00 88 1005.5
20260505094429 71 196 1.0 1.0 0.00 0.00 0.00 88 1005.6
20260505093926 71 209 1.0 2.0 0.00 0.00 0.00 88 1005.8
20260505093422 71 208 1.0 2.0 0.00 0.00 0.00 88 1005.7
20260505092920 71 206 2.0 2.0 0.00 0.00 0.00 88 1005.7
20260505092418 71 208 3.0 5.0 0.00 0.00 0.00 88 1005.8
20260505091915 71 184 3.0 3.0 0.00 0.00 0.00 88 1005.9
20260505091412 71 166 2.0 3.0 0.00 0.00 0.00 88 1006.0
20260505090910 71 239 1.0 3.0 0.00 0.00 0.00 88 1006.1
20260505090408 71 193 1.0 1.0 0.00 0.00 0.00 88 1006.0
20260505085905 71 188 1.0 1.0 0.00 0.00 0.00 88 1006.0
20260505085403 71 213 3.0 3.0 0.00 0.00 0.00 88 1006.1
20260505084901 71 187 2.0 2.0 0.00 0.00 0.00 88 1006.0
20260505084359 71 219 3.0 3.0 0.00 0.00 0.00 88 1006.2
20260505083856 71 210 1.0 1.0 0.00 0.00 0.00 88 1006.0
20260505083354 71 184 5.0 10.0 0.00 0.00 0.00 88 1005.9
20260505082850 71 143 2.0 3.0 0.00 0.00 0.00 87 1006.1
20260505082346 71 178 2.0 3.0 0.00 0.00 0.00 87 1005.9
20260505081843 71 196 3.0 3.0 0.00 0.00 0.00 87 1005.9
20260505081340 71 216 4.0 6.0 0.00 0.00 0.00 87 1005.9
20260505080836 71 199 4.0 6.0 0.00 0.00 0.00 87 1006.0
20260505080332 71 227 3.0 5.0 0.00 0.00 0.00 86 1006.1
20260505075827 72 195 1.0 2.0 0.00 0.00 0.00 86 1006.2
20260505075325 72 217 4.0 7.0 0.00 0.00 0.00 86 1006.4
20260505074822 72 204 3.0 3.0 0.00 0.00 0.00 86 1006.3
20260505074319 72 161 2.0 2.0 0.00 0.00 0.00 85 1006.3
20260505073817 72 248 2.0 3.0 0.00 0.00 0.00 85 1006.4
20260505073315 72 221 2.0 3.0 0.00 0.00 0.00 85 1006.2
20260505072811 72 194 1.0 2.0 0.00 0.00 0.00 85 1006.5
20260505072307 72 190 2.0 3.0 0.00 0.00 0.00 84 1006.9
20260505071803 72 206 3.0 6.0 0.00 0.00 0.00 84 1006.8
20260505071300 72 321 1.0 2.0 0.00 0.00 0.00 84 1007.0
20260505070758 72 205 3.0 5.0 0.00 0.00 0.00 84 1006.8
20260505070254 72 199 3.0 5.0 0.00 0.00 0.00 83 1007.1
20260505065749 72 193 1.0 1.0 0.00 0.00 0.00 83 1007.1
20260505065246 72 169 1.0 1.0 0.00 0.00 0.00 83 1007.1
20260505064744 73 171 3.0 5.0 0.00 0.00 0.00 82 1007.2
20260505064241 72 223 1.0 1.0 0.00 0.00 0.00 82 1007.1
20260505063738 73 186 2.0 2.0 0.00 0.00 0.00 82 1007.4
20260505063235 73 202 3.0 6.0 0.00 0.00 0.00 81 1007.3
20260505062731 73 233 2.0 2.0 0.00 0.00 0.00 81 1007.2
20260505062229 73 134 0.0 1.0 0.00 0.00 0.00 81 1007.5
20260505061725 73 198 1.0 2.0 0.00 0.00 0.00 80 1007.4
20260505061224 73 206 3.0 3.0 0.00 0.00 0.00 79 1007.3
20260505060721 73 214 2.0 2.0 0.00 0.00 0.00 79 1007.4
20260505060218 73 227 3.0 3.0 0.00 0.00 0.00 79 1007.2
20260505055713 74 216 2.0 2.0 0.00 0.00 0.00 78 1007.4
20260505055210 74 191 4.0 5.0 0.00 0.00 0.00 78 1007.1
20260505054707 74 110 1.0 2.0 0.00 0.00 0.00 78 1007.2
20260505054205 74 171 3.0 3.0 0.00 0.00 0.00 77 1007.2
20260505053703 74 214 2.0 2.0 0.00 0.00 0.00 76 1006.9
20260505053159 74 220 1.0 1.0 0.00 0.00 0.00 76 1007.2
20260505052655 75 86 3.0 5.0 0.00 0.00 0.00 76 1007.1
20260505052152 75 148 4.0 5.0 0.00 0.00 0.00 75 1007.2
20260505051649 75 154 3.0 5.0 0.00 0.00 0.00 75 1007.4
20260505051147 75 186 3.0 5.0 0.00 0.00 0.00 75 1007.4
20260505050645 75 197 3.0 5.0 0.00 0.00 0.00 75 1007.5
20260505050143 75 145 4.0 8.0 0.00 0.00 0.00 74 1007.5
20260505041613 75 204 5.0 7.0 0.00 0.00 0.00 74 1007.6
20260505041110 75 171 2.0 2.0 0.00 0.00 0.00 75 1007.8
20260505040607 75 200 2.0 2.0 0.00 0.00 0.00 74 1007.6
20260505040104 75 213 5.0 7.0 0.00 0.00 0.00 74 1007.5
20260505035600 75 206 3.0 6.0 0.00 0.00 0.00 74 1007.5
20260505035057 75 208 2.0 2.0 0.00 0.00 0.00 74 1007.7
20260505034553 75 208 3.0 6.0 0.00 0.00 0.00 73 1007.7
20260505034050 75 217 3.0 5.0 0.00 0.00 0.00 73 1007.5
20260505033548 75 202 3.0 3.0 0.00 0.00 0.00 73 1007.6
20260505033046 75 177 2.0 2.0 0.00 0.00 0.00 73 1007.7
20260505032543 75 151 2.0 5.0 0.00 0.00 0.00 73 1007.6
20260505032039 75 275 2.0 3.0 0.00 0.00 0.00 73 1007.7
20260505031537 75 179 5.0 7.0 0.00 0.00 0.00 73 1007.5
20260505031033 75 224 2.0 3.0 0.00 0.00 0.00 73 1007.6
20260505030530 75 211 1.0 1.0 0.00 0.00 0.00 73 1007.6
20260505030026 75 181 0.0 0.0 0.00 0.00 0.00 73 1007.7
20260505025522 75 206 2.0 3.0 0.00 0.00 0.00 73 1007.7
20260505025021 75 214 2.0 3.0 0.00 0.00 0.00 73 1007.9
20260505024517 75 180 2.0 3.0 0.00 0.00 0.00 73 1007.7
20260505024015 76 183 2.0 2.0 0.00 0.00 0.00 72 1007.8
20260505023512 76 229 2.0 6.0 0.00 0.00 0.00 72 1007.5
20260505023009 76 208 2.0 2.0 0.00 0.00 0.00 72 1007.6
20260505022507 76 194 3.0 5.0 0.00 0.00 0.00 72 1007.6
20260505022004 76 194 3.0 3.0 0.00 0.00 0.00 71 1007.5
20260505021500 76 161 3.0 5.0 0.00 0.00 0.00 71 1007.3
20260505020955 76 110 1.0 3.0 0.00 0.00 0.00 71 1007.4
20260505020451 76 201 2.0 2.0 0.00 0.00 0.00 71 1007.4
20260505015948 76 251 2.0 2.0 0.00 0.00 0.00 71 1007.3
20260505015446 76 140 3.0 5.0 0.00 0.00 0.00 70 1007.3
20260505014943 77 197 3.0 5.0 0.00 0.00 0.00 70 1007.3
20260505014439 77 210 2.0 2.0 0.00 0.00 0.00 70 1007.3
20260505013937 77 175 2.0 3.0 0.00 0.00 0.00 70 1007.4
20260505013434 77 161 3.0 5.0 0.00 0.00 0.00 70 1007.5
20260505012931 77 204 2.0 3.0 0.00 0.00 0.00 69 1007.3
20260505012429 77 206 3.0 3.0 0.00 0.00 0.00 69 1007.3
20260505011925 77 190 3.0 5.0 0.00 0.00 0.00 69 1007.3
20260505011422 77 130 3.0 8.0 0.00 0.00 0.00 69 1007.3
20260505010918 77 220 2.0 2.0 0.00 0.00 0.00 68 1007.3
20260505010414 77 210 5.0 8.0 0.00 0.00 0.00 68 1007.4
20260505005910 77 198 5.0 8.0 0.00 0.00 0.00 68 1007.5
20260505005407 77 177 3.0 6.0 0.00 0.00 0.00 68 1007.4
20260505004905 77 140 4.0 5.0 0.00 0.00 0.00 68 1007.4
20260505004401 78 172 3.0 8.0 0.00 0.00 0.00 67 1007.5
20260505003858 78 186 2.0 5.0 0.00 0.00 0.00 67 1007.5
20260505003355 78 185 3.0 3.0 0.00 0.00 0.00 67 1007.5